STARLINK-1229

decayed
NORAD ID: 45231 Int'l Des: 2020-012 Owner: SPXS Country: US Constellation: starlink
LEOCIRCULAR

关于 STARLINK-1229

正在加载描述...

高度历史

Altitude vs Time

uPlot chart will show altitude changes over time

两行轨道根数

1 45231U 20012BF 22296.33975764 .44991703 12273-4 29375-2 0 9999
2 45231 53.0128 259.5142 0007385 190.3183 322.7615 16.40790287151920
Epoch: Oct 23, 2022 • Age: 25417 hours

当前状态

Position data unavailable
发射日期 Feb 17, 2020
运行时间 5.5 years
衰减日期 Oct 23, 2022
类型 internet

技术详情

分类 Payload
质量 260.00 kg
干质量 248.00 kg
总质量 260.00 kg
长度 0.20 m
直径 2.80 m
跨度 9.00 m
形状 Box + pan
制造商 SPXS
平台类型 Starlink
阶段状态 Unknown Transfer Status
所有者/国家 SPXS/US

大型星座

Loading constellations...